Location: Newark
(43.5167°N, 11.4833°E)
Time: 05:13:01
(UTC+00:00)

N. Korean satellite - Visible Passes

Search period start: 29 January 2020 00:00
Search period end: 08 February 2020 00:00
Orbit: 454 x 507 km, 97.2° (Epoch: 28 January)

Date Brightness Start Highest point End Pass type
(mag) Time Alt. Az. Time Alt. Az. Time Alt. Az.
29 Jan 9.8 04:04:03 10° ENE 04:06:04 14° E 04:08:06 10° SE visible
29 Jan 7.1 05:36:15 10° N 05:39:36 37° WNW 05:43:00 10° SW visible
30 Jan 6.5 05:10:33 10° N 05:14:11 81° WNW 05:17:50 10° SSW visible
30 Jan 10.1 17:22:41 10° WSW 17:24:00 12° W 17:25:20 10° WNW visible
31 Jan 7.7 04:45:09 10° NNE 04:48:39 46° E 04:52:11 10° S visible
31 Jan 9.3 16:55:29 10° SSW 16:58:18 24° W 17:01:09 10° NW visible
01 Feb 9.2 04:20:07 10° NE 04:23:03 22° E 04:25:59 10° SSE visible
01 Feb 7.7 05:53:24 10° NNW 05:56:23 24° WNW 05:59:22 10° SW visible
02 Feb 10.1 03:56:04 10° ENE 03:57:22 11° E 03:58:38 10° ESE visible
02 Feb 6.8 05:27:28 10° N 05:31:00 48° WNW 05:34:32 10° SSW visible
03 Feb 6.7 05:01:52 10° NNE 05:05:32 78° ESE 05:09:12 10° S visible
03 Feb 9.8 17:13:11 10° SW 17:15:14 15° W 17:17:19 10° NW visible
04 Feb 8.3 04:36:34 10° NNE 04:39:59 36° E 04:43:24 10° SSE visible
05 Feb 9.5 04:11:43 10° NE 04:14:20 18° E 04:16:57 10° SE visible
05 Feb 7.4 05:44:31 10° N 05:47:46 30° WNW 05:51:01 10° SW visible
06 Feb 6.6 05:18:42 10° N 05:22:21 63° WNW 05:26:01 10° SSW visible
07 Feb 7.2 04:53:12 10° NNE 04:56:52 60° E 05:00:31 10° S visible
07 Feb 9.7 17:03:55 10° SW 17:06:28 19° W 17:09:03 10° NW visible
